Карточка аэропорта UHWW

Внимание!
Информация на этой странице в стадии наполнения.
Если вы не увидели какой-то информации, или заметили неточность - пожалуйста сообщите нам!
Спасибо!
Команда RU-STAFF
Название аэропортаКневичи
Название аэропорта (англ.)Knevichi
Превышение59 ft. (18 m.)
Координаты43°23.886', 132°8.9400000000001'
Высота перехода7000ft
Эшелон переходаQNH>=1013hPa: FL80; 1013hPa>QNH>=977hPa: FL90; QNH<977hPa: FL100
Коды ответчика5050-5077
Зона ОрВДХабаровск РПИ (UHHH)
Данные METARUHWW 210330Z 27003MPS 220V330 9999 NSC 22/04 Q1018 R25L/0///70 NOSIG RMK QFE762
Проноз погоды (TAF)UHWW 210200Z 2103/2203 23003G08MPS 9999 NSC TEMPO 2103/2110 24007G12MPS BECMG 2114/2116 18006G11MPS BKN020 TEMPO 2116/2203 20009G14MPS
NOTAMshow/hide NOTAM
AWOS   TABLE

Информация о ВПП

ВПП Длина ВПП (м.) Покрытие Курс ВПП Частота ILS
07R3500Бетон71109.3
25L3500Бетон251110.1

Диспетчерские позиции

Позывной Наименование органа УВД Частота
UHWW-FM1Машина сопровождения121.700
UHWW_APPВладивосток-Подход124.7
UHWW_GNDВладивосток-Руление121.7
UHWW_R_APPВладивосток-Круг123.4
UHWW_TWRВладивосток-Старт119.5



Спутниковое изображение